Location: Mount Cross
(36.6390°N, 79.4878°W)
Time: 01:22:04
(UTC+00:00)

SR - Pass Details

Date: 06 April 2023
Orbit: 580 x 867 km, 66.7° (Epoch: 08 June)

Event Time Altitude Azimuth Distance (km) Brightness Sun altitude
Rises 02:57:32 0° 161° (SSE) 3,022 - -35.6°
Reaches altitude 10° 03:01:08 10° 133° (SE) 2,047 - -36.1°
Maximum altitude 03:03:10 13° 107° (ESE) 1,831 - -36.3°
Drops below altitude 10° 03:05:10 10° 80° (E) 1,988 - -36.6°
Sets 03:08:31 0° 52° (NE) 2,854 - -37.1°
